ON1TG-13 Weather Reports


time (UTC)temp
C
wind
direction
speed
KPH
gust
KPH
rain 1hr
cm
rain 24hr
cm
rain mn
cm
humidity
%
barometer
mb
20260510091228 21 21 27.4 56.3 0.00 0.00 0.00 21 1014.6
20260510085720 20 20 32.2 54.7 0.00 0.00 0.00 21 1014.7
20260510084213 20 10 29.0 51.5 0.00 0.00 0.00 21 1014.8
20260510082705 21 18 27.4 46.7 0.00 0.00 0.00 21 1014.8
20260510081158 21 21 29.0 46.7 0.00 0.00 0.00 21 1015.2
20260510075651 20 15 27.4 46.7 0.00 0.00 0.00 21 1015.1
20260510074144 21 15 25.7 48.3 0.00 0.00 0.00 21 1015.4
20260510072635 20 20 29.0 48.3 0.00 0.00 0.00 21 1015.4
20260510071128 20 13 24.1 46.7 0.00 0.00 0.00 21 1015.3
20260510065621 21 25 29.0 45.1 0.00 0.00 0.00 21 1015.3
20260510064113 21 22 25.7 40.2 0.00 0.00 0.00 21 1015.3
20260510062605 19 20 27.4 43.5 0.00 0.00 0.00 21 1015.0
20260510061058 21 24 19.3 43.5 0.00 0.00 0.00 21 1015.4
20260510055551 19 22 24.1 40.2 0.00 0.00 0.00 21 1015.0
20260510054043 19 28 25.7 41.8 0.00 0.00 0.00 21 1015.2
20260510052535 20 18 19.3 37.0 0.00 0.00 0.00 21 1015.1
20260510051027 18 23 22.5 37.0 0.00 0.00 0.00 21 1015.1
20260510045520 18 14 24.1 41.8 0.00 0.00 0.00 21 1015.3
20260510044013 17 20 20.9 38.6 0.00 0.00 0.00 21 1015.4
20260510042504 17 20 24.1 43.5 0.00 0.00 0.00 21 1014.7
20260510040957 18 17 19.3 38.6 0.00 0.00 0.00 21 1015.2
20260510035450 19 15 17.7 35.4 0.00 0.00 0.00 21 1015.2
20260510033943 18 22 19.3 33.8 0.00 0.00 0.00 21 1015.1
20260510032435 17 24 17.7 35.4 0.00 0.00 0.00 21 1015.3
20260510030928 17 16 17.7 33.8 0.00 0.00 0.00 21 1015.4
20260510025421 19 25 20.9 40.2 0.00 0.00 0.00 21 1015.1
20260510023914 20 23 17.7 37.0 0.00 0.00 0.00 21 1015.4
20260510022406 19 20 20.9 33.8 0.00 0.00 0.00 21 1015.3
20260510020859 18 24 19.3 40.2 0.00 0.00 0.00 21 1015.4
20260510015351 18 22 19.3 37.0 0.00 0.00 0.00 21 1015.5
20260510013844 18 27 16.1 32.2 0.00 0.00 0.00 21 1015.7
20260510012336 18 10 19.3 33.8 0.00 0.00 0.00 21 1015.5
20260510010829 18 17 16.1 30.6 0.00 0.00 0.00 21 1015.7
20260510005322 18 25 19.3 30.6 0.00 0.00 0.00 21 1015.8
20260510003814 18 26 14.5 32.2 0.00 0.00 0.00 21 1016.0
20260510002307 18 24 19.3 35.4 0.00 0.00 0.00 21 1015.9
20260510000800 18 10 17.7 35.4 0.00 0.00 0.00 21 1015.9
20260509235253 18 27 17.7 40.2 0.00 0.00 0.00 21 1016.1
20260509233744 18 22 17.7 27.4 0.00 0.00 0.00 21 1016.3
20260509232237 18 21 14.5 29.0 0.00 0.00 0.00 21 1016.4
20260509230730 18 26 17.7 32.2 0.00 0.00 0.00 21 1016.3
20260509225223 18 20 19.3 32.2 0.00 0.00 0.00 21 1016.2
20260509223714 18 17 16.1 25.7 0.00 0.00 0.00 21 1016.4
20260509222206 19 20 14.5 32.2 0.00 0.00 0.00 21 1016.4
20260509220659 18 23 16.1 27.4 0.00 0.00 0.00 21 1016.3
20260509215152 19 19 16.1 33.8 0.00 0.00 0.00 21 1016.5
20260509213644 18 17 17.7 35.4 0.00 0.00 0.00 21 1016.4
20260509212137 18 19 17.7 33.8 0.00 0.00 0.00 21 1016.4
20260509210630 18 26 16.1 33.8 0.00 0.00 0.00 21 1016.3
20260509205122 18 16 14.5 35.4 0.00 0.00 0.00 21 1016.2
20260509203615 18 19 14.5 29.0 0.00 0.00 0.00 21 1016.3
20260509202107 18 25 11.3 33.8 0.00 0.00 0.00 21 1016.2
20260509200559 20 26 16.1 32.2 0.00 0.00 0.00 21 1016.1
20260509195051 18 19 19.3 33.8 0.00 0.00 0.00 21 1015.9
20260509193544 20 27 14.5 30.6 0.00 0.00 0.00 21 1016.0
20260509192037 19 20 12.9 32.2 0.00 0.00 0.00 21 1015.9
20260509190530 19 13 17.7 33.8 0.00 0.00 0.00 21 1015.7
20260509185022 20 22 17.7 33.8 0.00 0.00 0.00 21 1016.0
20260509183515 21 17 19.3 33.8 0.00 0.00 0.00 21 1015.8
20260509182008 20 18 19.3 35.4 0.00 0.00 0.00 21 1015.8
20260509180500 21 17 19.3 33.8 0.00 0.00 0.00 21 1015.9
20260509174953 21 11 20.9 35.4 0.00 0.00 0.00 21 1015.9
20260509173446 21 16 19.3 40.2 0.00 0.00 0.00 21 1015.8
20260509171938 20 12 20.9 38.6 0.00 0.00 0.00 21 1015.8
20260509170431 21 19 17.7 35.4 0.00 0.00 0.00 21 1015.6
20260509164924 21 16 22.5 40.2 0.00 0.00 0.00 21 1015.5
20260509163415 21 20 22.5 43.5 0.00 0.00 0.00 21 1015.6
20260509161908 21 6 19.3 40.2 0.00 0.00 0.00 21 1015.7
20260509160401 21 10 24.1 40.2 0.00 0.00 0.00 21 1015.5
20260509154853 22 19 20.9 40.2 0.00 0.00 0.00 21 1015.9
20260509153346 22 16 22.5 41.8 0.00 0.00 0.00 21 1015.5
20260509151839 22 18 27.4 40.2 0.00 0.00 0.00 21 1015.7
20260509150331 22 17 25.7 41.8 0.00 0.00 0.00 21 1015.5
20260509144824 22 17 24.1 41.8 0.00 0.00 0.00 21 1015.5
20260509143317 23 16 22.5 41.8 0.00 0.00 0.00 21 1015.9
20260509141809 23 15 20.9 38.6 0.00 0.00 0.00 21 1015.8
20260509140302 23 25 22.5 38.6 0.00 0.00 0.00 21 1015.9
20260509134755 23 20 25.7 40.2 0.00 0.00 0.00 21 1015.9
20260509133247 23 11 22.5 40.2 0.00 0.00 0.00 21 1015.6
20260509131740 23 20 20.9 40.2 0.00 0.00 0.00 21 1016.1
20260509130233 26 21 19.3 35.4 0.00 0.00 0.00 21 1016.3
20260509124725 25 18 22.5 37.0 0.00 0.00 0.00 21 1016.1
20260509123219 24 19 22.5 35.4 0.00 0.00 0.00 21 1016.3
20260509121711 24 16 17.7 35.4 0.00 0.00 0.00 21 1016.5
20260509120203 24 13 19.3 37.0 0.00 0.00 0.00 21 1016.8
20260509113149 23 16 20.9 35.4 0.00 0.00 0.00 21 1016.9
20260509111641 24 9 19.3 37.0 0.00 0.00 0.00 21 1017.1
20260509110134 24 19 22.5 37.0 0.00 0.00 0.00 21 1017.2
20260509104627 23 24 24.1 38.6 0.00 0.00 0.00 21 1017.2
20260509103120 23 15 20.9 35.4 0.00 0.00 0.00 21 1017.4
20260509101613 24 19 17.7 32.2 0.00 0.00 0.00 21 1017.3
20260509100105 25 18 17.7 32.2 0.00 0.00 0.00 21 1017.6
20260509094558 26 19 14.5 27.4 0.00 0.00 0.00 21 1017.5
20260509093050 26 19 12.9 22.5 0.00 0.00 0.00 21 1017.5